Location: *
(41.7492°S, 135.4150°W)
Time: 04:54:13
(UTC+00:00)

TIGRISAT - Pass Details

Date: 01 July 2022
Orbit: 603 x 686 km, 97.7° (Epoch: 08 August)

Event Time Altitude Azimuth Distance (km) Brightness Sun altitude
Rises 14:20:13 0° 151° (SSE) 3,093 ? -23.3°
Reaches altitude 10° 14:23:09 10° 133° (SE) 2,163 ? -22.8°
Maximum altitude 14:26:27 19° 89° (E) 1,646 ? -22.2°
Drops below altitude 10° 14:29:41 10° 44° (NE) 2,124 ? -21.6°
Sets 14:32:31 0° 26° (NNE) 3,016 ? -21.1°
